RH
27 21 19 22 24 25 28 28 28 33 30 42 49 64 63 59 26 30 30 47 59 60 63 68 61 54 57 58 53 56 56 46 40 39 37 32 22 23 23 18 15 14 14
35 37 27 20 24 26 25 28 29 29 30 32 38 41 56 51 51 41 34 49 56 62 61 64 60 53 41 52 67 57 48 42 42 44 41 30 25 26 22 18 17 16 15
43 33 38 39 25 23 29 32 29 31 30 31 32 39 46 47 49 58 82 71 68 59 61 53 60 55 50 43 56 45 44 50 49 42 32 32 29 19 20 20 19 18 18
81 50 33 33 43 32 27 28 45 38 34 35 36 39 44 55 58 48 66 87 56 66 58 58 62 56 55 58 48 45 38 37 33 29 33 38 32 21 18 19 20 19 15
93 82 49 33 32 38 40 31 35 49 57 43 40 41 43 46 50 54 39 50 80 88 74 48 77 71 66 61 50 46 42 40 33 41 46 41 35 30 21 21 20 18 16
91 86 77 54 42 34 35 44 43 41 48 53 58 59 53 46 46 47 48 48 45 44 45 61 76 73 86 86 62 52 55 47 55 58 49 38 38 31 23 24 23 19 28
90 95 79 78 60 56 48 36 42 48 51 57 62 61 63 67 67 64 58 56 49 49 52 77 100 100 100 98 99 76 64 60 68 58 49 42 37 35 29 23 20 24 37
83 93 98 86 78 82 63 66 52 48 57 64 64 68 66 62 66 66 65 62 55 55 59 80 100 95 73 61 67 64 64 67 64 49 48 43 39 34 30 23 23 30 40
75 86 92 100 100 100 99 85 82 76 62 58 80 88 85 80 77 76 71 62 56 64 83 96 100 90 92 77 66 60 65 65 57 55 42 39 39 41 33 23 26 35 31
48 85 88 99 100 100 100 100 100 100 100 87 78 83 100 100 100 94 84 79 75 100 100 100 96 92 77 75 68 62 62 61 69 60 47 44 40 39 30 21 29 42 33
39 44 76 72 66 99 100 100 100 100 100 100 100 98 84 86 89 99 100 100 100 100 100 100 100 93 75 74 75 68 70 74 73 59 55 48 44 43 26 23 34 49 43
20 25 33 48 44 52 85 100 100 100 100 100 100 100 99 90 77 81 85 99 100 91 83 97 98 91 75 75 72 71 74 82 72 63 61 54 53 39 27 35 49 54 49
15 15 19 24 35 48 71 84 100 100 100 100 100 100 100 100 100 94 88 80 82 79 77 83 95 100 93 85 85 81 76 78 66 71 63 61 56 35 28 42 58 54 40
13 13 14 16 19 26 56 68 78 79 92 99 100 100 100 100 100 100 97 93 80 81 80 80 87 86 91 90 94 98 96 85 79 82 72 63 48 26 24 37 41 34 19
12 13 13 13 14 17 21 29 97 89 72 65 69 75 80 82 90 88 84 89 90 87 81 94 94 84 82 90 99 100 100 90 88 87 79 68 35 24 23 22 18 17 18
13 12 12 12 12 12 16 19 41 100 100 92 72 69 64 60 64 63 67 82 84 88 90 88 83 79 88 88 100 100 100 98 100 99 82 65 25 16 16 16 16 17 18
19 17 15 13 12 12 12 14 17 24 71 97 100 100 91 89 82 78 85 93 98 91 90 91 79 84 83 92 100 100 100 100 100 99 86 55 20 18 17 18 18 19 19
18 17 18 17 14 12 12 12 14 17 19 27 44 47 48 52 49 53 45 56 74 78 80 67 80 97 82 90 100 100 100 100 100 97 78 35 20 20 19 19 20 20 21
20 18 16 18 20 16 12 11 12 14 16 16 16 18 19 18 17 17 19 21 38 50 53 61 62 70 83 100 100 100 100 100 100 85 54 22 21 22 23 25 25 25 25
24 23 20 16 16 19 18 16 14 13 13 13 15 16 17 19 23 29 31 28 29 33 39 49 76 85 100 100 100 100 100 100 96 82 32 24 24 24 25 26 26 28 28
30 30 24 20 17 16 20 20 20 19 16 14 14 22 21 25 20 21 19 19 20 48 76 84 100 100 100 100 100 100 100 100 86 41 27 26 25 27 30 30 32 32 34
32 31 28 22 19 18 18 21 23 23 21 19 22 49 49 41 24 18 16 19 21 29 43 94 100 100 100 100 100 100 100 79 42 31 28 28 30 33 35 34 33 40 44
31 32 30 24 19 18 18 20 24 25 24 23 22 22 28 26 20 18 18 20 22 30 90 100 100 100 100 100 100 100 84 44 33 32 32 34 37 37 38 40 44 43 38
32 30 30 26 22 21 18 19 22 26 26 27 28 29 28 24 24 21 23 24 25 57 94 99 99 100 100 100 100 72 45 39 41 46 51 50 44 41 42 46 44 41 35
41 33 34 31 25 25 23 20 20 26 27 29 32 38 35 32 28 22 27 31 53 89 100 90 98 100 100 96 55 40 39 43 44 53 56 49 45 46 52 51 46 41 35
51 43 44 48 39 32 30 26 22 25 31 30 36 43 37 35 33 28 31 34 88 93 93 97 96 91 82 54 45 41 41 48 58 51 42 47 49 55 51 49 45 39 34
Wind_Speed
40 41 38 36 34 32 29 28 28 26 25 26 24 24 24 21 25 25 24 26 27 28 28 28 28 31 32 34 37 39 41 41 44 46 49 52 54 58 62 61 60 63 64
45 44 45 44 42 39 37 35 34 34 35 36 35 35 31 32 29 29 30 31 32 34 35 35 35 35 37 36 39 43 44 46 47 51 52 55 59 65 66 66 64 66 66
52 49 49 49 49 47 44 43 41 40 40 41 40 39 40 40 37 35 37 38 39 41 41 43 41 42 43 43 43 47 48 48 52 53 57 59 65 66 63 64 67 70 69
59 57 52 52 52 53 51 50 48 47 46 45 44 44 44 43 42 41 40 42 45 47 48 48 52 49 48 47 48 52 53 55 56 55 59 63 66 64 63 67 67 69 70
61 62 60 55 54 55 56 56 56 54 51 50 48 48 48 48 47 48 47 46 48 50 51 53 52 50 50 51 52 53 54 55 57 59 62 67 68 69 67 69 70 69 63
67 65 66 64 60 59 58 59 58 58 57 56 55 54 54 53 53 54 54 52 50 52 52 51 51 53 55 55 55 56 50 54 58 62 67 70 71 69 69 68 68 61 53
72 70 70 69 67 64 63 62 61 62 62 62 61 60 60 59 58 58 56 55 53 54 52 50 53 52 48 52 52 51 56 60 60 66 68 70 68 66 67 66 63 55 52
75 75 73 73 72 70 68 67 65 65 65 64 64 64 64 63 62 60 59 57 57 56 57 55 46 48 55 56 56 58 59 60 64 67 70 69 65 64 66 66 60 52 49
78 79 77 76 76 75 73 73 71 68 68 67 67 67 66 65 65 64 63 62 61 59 61 61 58 61 63 63 63 59 60 63 66 69 66 64 64 63 64 65 56 50 47
81 83 82 78 79 78 78 77 76 75 72 70 70 69 68 66 66 66 66 65 65 66 64 65 66 65 64 65 64 64 63 65 66 68 67 64 66 62 64 62 54 46 44
80 82 84 81 82 81 81 80 79 78 77 76 74 72 72 71 70 67 67 67 68 68 66 64 66 67 69 67 64 64 65 67 70 69 66 64 63 60 62 59 51 44 43
77 79 82 85 84 85 86 85 83 79 79 78 78 77 75 75 74 72 73 72 71 72 71 69 68 68 69 65 66 68 69 71 72 66 63 62 62 61 60 54 48 44 42
74 77 79 81 84 85 84 86 85 84 84 82 81 79 78 77 75 75 75 77 77 75 75 75 73 70 71 71 70 70 71 70 68 67 67 62 60 59 58 49 45 44 44
73 73 73 75 78 80 83 84 85 86 83 84 84 84 84 81 79 78 79 79 80 81 81 81 79 77 75 75 72 73 73 70 69 67 67 61 58 54 51 45 44 45 44
74 73 73 71 71 73 76 78 80 80 80 80 79 81 81 80 79 80 80 79 80 81 80 78 77 76 75 74 75 75 72 69 68 66 65 61 56 48 47 44 45 45 45
69 73 74 74 72 70 72 74 75 76 75 76 76 75 75 76 76 77 78 77 78 77 76 77 77 75 73 76 74 73 70 69 67 66 63 58 53 49 48 47 46 49 50
63 65 69 71 74 75 72 72 71 73 73 72 68 69 69 69 71 73 75 76 75 76 75 75 75 72 71 71 71 70 68 66 67 64 61 57 55 52 51 51 52 53 55
63 63 64 68 71 74 75 72 72 71 71 71 71 70 66 64 64 67 69 72 72 72 73 74 70 66 66 67 68 66 67 67 68 62 59 57 55 52 54 56 57 60 60
63 64 64 63 66 69 73 73 73 73 73 70 67 65 62 60 58 58 60 63 64 67 69 69 68 68 68 67 63 63 65 67 64 57 57 57 56 55 58 60 63 65 66
62 64 65 65 63 65 68 70 72 73 74 72 68 66 62 59 59 58 57 56 57 61 62 64 65 66 64 61 62 62 65 63 59 58 57 58 58 59 63 66 68 70 72
61 61 65 63 61 63 65 67 68 69 71 70 68 66 62 63 63 60 57 56 56 57 56 59 62 60 60 61 61 61 59 57 56 57 60 61 61 65 69 71 74 78 80
59 60 63 65 62 60 64 65 66 66 66 67 65 61 62 61 65 60 58 56 57 56 58 58 56 57 59 61 59 57 56 55 57 60 63 64 67 71 74 77 80 82 84
60 59 62 65 61 60 60 65 66 65 63 64 65 64 62 63 64 60 58 57 58 57 56 54 53 56 58 57 58 57 56 56 60 64 66 69 73 77 80 83 85 87 88
64 60 61 64 60 59 58 59 66 66 63 60 61 60 62 62 61 59 58 58 57 56 55 56 56 57 58 57 57 57 57 59 62 66 74 77 79 83 86 90 93 95 96
67 61 58 59 58 57 57 57 59 67 63 57 55 58 59 59 59 59 57 58 57 56 56 57 57 57 58 58 57 57 61 64 66 68 73 81 85 89 91 95 100 103 104
68 63 58 55 56 53 52 56 57 62 62 55 53 57 58 58 58 57 57 58 57 58 58 58 57 59 59 57 59 62 65 68 71 74 77 82 85 93 98 103 106 107 110
Wind_Direction
241 244 246 247 251 250 248 252 254 256 256 263 263 267 256 255 244 247 264 275 283 292 292 292 290 287 286 285 285 287 288 290 290 294 297 297 300 300 301 299 296 294 294
246 244 246 247 250 252 255 252 251 256 260 263 267 268 260 267 268 258 268 274 281 286 289 288 287 282 283 284 286 290 291 292 292 294 295 300 301 299 300 298 292 297 294
253 249 245 248 249 248 250 254 255 254 257 259 263 262 265 269 268 270 267 275 278 287 286 285 289 289 288 286 284 289 289 290 291 295 297 300 303 304 300 300 297 296 294
255 253 250 246 247 249 249 252 254 256 258 258 259 260 263 265 269 274 273 274 279 281 284 284 288 287 287 288 289 292 292 295 296 296 296 298 303 302 301 304 301 298 296
252 254 251 248 247 249 249 250 252 256 256 258 260 260 262 264 266 269 272 271 274 276 281 287 290 290 290 289 288 292 294 295 296 297 296 298 301 303 303 305 305 303 299
250 251 254 250 248 249 252 250 251 255 258 261 261 260 260 261 263 267 271 273 273 278 284 287 288 288 289 288 287 293 291 292 293 294 298 302 302 304 304 308 305 301 295
247 247 250 252 250 250 251 253 255 255 254 257 260 263 266 268 269 272 274 277 278 280 283 285 292 291 291 292 291 289 291 294 293 295 299 304 305 305 307 310 307 297 291
247 245 246 250 250 250 251 252 254 256 258 258 259 260 262 266 269 272 274 277 279 280 282 284 283 286 291 291 295 296 293 291 294 299 302 303 304 305 310 309 305 296 294
244 245 245 246 249 249 249 251 252 253 255 259 262 263 263 265 268 271 272 274 278 281 284 285 281 283 285 289 291 292 292 293 297 299 304 303 303 308 308 308 302 295 294
245 243 244 245 247 249 251 251 252 253 252 254 258 262 264 266 268 270 272 274 277 280 281 281 284 284 286 288 289 291 292 293 295 301 304 301 304 306 307 305 299 293 294
247 246 246 246 247 247 249 251 253 253 254 255 256 257 260 263 266 268 270 271 272 275 277 281 281 283 287 288 288 289 290 293 297 299 301 302 304 305 305 301 294 289 289
249 249 247 247 248 249 248 249 251 253 255 256 257 258 259 262 265 267 270 271 271 273 276 279 282 282 283 284 286 289 291 293 295 297 298 302 304 305 301 295 290 288 290
251 251 249 248 247 250 249 249 251 253 254 255 257 258 260 262 265 267 269 269 271 273 275 278 282 281 282 284 286 289 290 292 293 295 295 300 301 301 297 291 287 288 291
251 251 251 249 249 249 250 253 254 255 255 256 256 258 261 264 266 268 269 270 271 273 276 279 281 281 280 283 285 287 288 290 291 293 295 297 297 294 294 292 289 290 291
251 252 252 251 250 249 249 251 251 255 257 258 259 260 262 264 266 268 270 271 273 275 276 279 280 281 282 283 283 285 287 288 289 290 293 295 292 288 287 286 288 290 293
253 253 253 253 252 251 250 250 250 249 251 256 259 261 262 266 268 267 269 271 272 274 276 278 281 283 282 282 283 284 283 286 287 288 292 291 284 283 283 284 287 288 288
254 252 252 253 253 252 251 251 252 254 255 254 256 258 261 263 266 267 269 272 273 276 276 278 280 281 282 282 282 282 283 284 283 286 289 284 280 282 283 285 285 286 287
254 254 253 253 253 252 251 250 251 252 255 257 260 263 264 266 268 270 272 273 273 273 274 277 278 277 279 278 279 281 281 282 281 284 285 280 281 282 284 285 288 289 287
254 256 256 255 254 253 252 252 251 252 253 255 257 259 262 266 270 273 272 273 272 273 275 274 275 275 275 276 277 279 280 281 280 281 280 280 282 284 285 286 286 288 287
255 258 257 255 255 255 254 254 253 252 252 255 257 258 260 266 268 269 271 275 276 274 274 274 273 273 275 276 277 278 279 278 279 279 279 281 283 286 287 287 288 288 288
254 256 258 258 256 255 254 254 253 254 254 254 256 259 261 262 264 267 273 278 278 276 277 278 277 277 276 277 278 278 276 276 277 279 280 282 285 286 287 289 290 291 291
254 254 257 257 256 255 253 252 252 253 253 254 254 254 258 259 264 269 271 276 279 278 278 281 280 277 277 277 278 276 276 278 279 281 283 286 287 287 288 290 292 293 293
253 254 255 257 257 257 253 249 249 250 252 252 253 254 256 258 262 267 272 275 277 279 280 279 276 275 275 275 277 276 278 280 282 284 287 288 289 290 292 292 293 292 291
257 256 256 258 259 261 260 254 248 248 250 250 251 252 254 257 261 265 269 273 276 277 277 275 274 274 276 277 276 278 279 281 283 287 290 292 293 294 295 295 295 293 292
258 259 261 264 263 261 263 259 251 245 247 248 248 248 252 255 259 263 268 272 275 276 274 275 277 277 277 275 278 280 282 283 285 287 290 293 294 295 297 298 297 296 295
256 255 256 258 260 259 262 264 257 244 243 244 245 245 249 253 257 262 266 270 271 272 273 276 277 277 277 277 279 280 283 286 287 288 290 292 294 297 299 298 298 297 297